Wind_Speed
30 31 31 32 32 32 33 34 33 32 32 30 26 24 24 23 21 21 21 21 22 23 24 24 24 25 26 25 25 24 22 22 24 24 25 24 22 19 17 16 14 10 9 9 8 7 7 7 7 7 8 8 8 9 9 10 11 12 12 13 14 15 15 16 16 17 18 19 20 20 20 20 21 22 23 23 23 23 24 24 24 23 23 22 21
27 29 30 31 30 30 32 32 31 31 30 27 25 24 23 23 21 20 20 21 23 24 24 24 25 27 27 26 27 25 23 23 25 26 26 25 21 19 16 13 11 7 9 10 9 8 7 7 8 8 8 9 9 10 10 11 12 12 13 14 14 15 16 16 17 17 18 18 20 21 21 21 21 22 23 23 23 23 24 25 25 24 23 23 21
26 27 29 30 29 28 29 29 30 30 30 28 26 25 23 22 21 19 19 21 23 24 24 24 26 27 26 25 27 27 27 26 25 24 24 22 21 20 17 12 9 9 10 11 10 9 8 8 8 8 9 9 10 11 11 12 13 14 14 15 15 15 16 16 17 18 18 19 19 20 21 22 22 22 23 23 23 23 23 24 24 24 24 24 23
27 28 29 29 28 27 27 28 29 29 29 27 25 25 24 22 21 20 20 22 24 24 24 24 25 27 26 25 26 28 29 28 25 22 20 19 18 19 17 13 10 10 12 11 10 9 8 8 8 9 10 10 11 11 12 13 14 15 15 16 17 18 18 18 19 19 20 20 20 20 21 22 22 22 23 23 23 23 23 23 24 24 24 24 24
27 27 27 27 26 26 28 27 26 25 26 26 25 26 25 23 21 21 22 22 22 22 23 24 24 25 24 24 24 24 25 26 24 21 19 18 18 18 17 14 11 12 12 11 9 9 8 8 8 9 10 11 12 13 13 14 15 16 17 18 19 20 21 21 21 21 22 22 22 22 22 22 22 22 22 24 24 24 23 23 24 25 25 25 25
24 24 23 23 24 24 25 26 24 22 23 24 24 25 23 21 20 20 21 19 17 18 20 22 22 22 22 23 23 22 20 21 21 19 17 17 17 17 16 13 12 12 11 9 9 9 8 9 9 10 11 12 13 14 15 16 17 18 19 20 21 22 23 24 24 25 25 25 25 25 25 25 24 24 23 23 25 26 25 24 24 25 25 26 26
22 22 21 20 21 21 21 22 24 25 24 23 22 22 22 20 18 18 17 16 15 16 17 19 19 20 22 22 23 23 22 20 19 17 16 17 17 15 13 12 12 11 9 9 9 9 9 10 10 11 12 14 15 16 17 18 19 21 22 23 24 24 25 26 27 28 28 28 28 29 29 28 28 27 25 24 23 25 27 27 26 25 26 26 26
22 22 20 18 19 19 18 18 20 22 23 22 21 21 21 20 17 16 17 17 18 18 18 17 17 19 20 21 22 22 21 20 18 16 17 17 16 12 11 11 11 10 10 10 10 10 11 11 12 13 14 16 17 18 19 20 21 23 24 26 27 27 28 28 28 29 30 31 32 32 32 32 31 30 29 28 26 24 26 28 28 28 27 27 27
23 22 19 17 17 19 18 15 14 16 18 19 19 20 20 18 15 14 15 17 19 21 20 18 17 17 18 18 19 18 16 16 15 15 15 15 12 10 11 12 11 11 11 11 11 12 12 13 14 15 16 17 19 20 21 22 24 25 26 28 29 30 30 30 30 31 31 32 32 33 33 33 33 33 32 32 31 28 27 27 29 29 29 30 29
21 20 17 16 17 19 18 14 12 13 13 13 15 17 16 14 11 10 11 14 17 18 19 18 16 16 17 16 17 16 13 12 12 13 13 12 11 12 13 13 12 11 11 11 12 12 13 14 15 16 18 19 20 22 23 24 26 27 28 29 30 31 32 32 32 32 32 32 32 33 33 33 34 35 35 35 35 34 32 30 30 30 29 30 31
20 18 16 15 16 17 16 14 12 11 10 11 13 14 13 12 9 8 10 12 13 14 14 15 14 15 14 13 14 15 12 10 12 12 12 12 13 14 14 13 12 11 11 12 12 13 14 15 17 18 19 21 22 23 25 26 27 28 30 30 31 32 32 33 33 33 33 33 34 34 33 34 34 34 35 36 36 36 35 34 33 32 31 30 31
18 17 15 14 13 13 13 13 11 9 8 10 12 13 12 12 9 9 11 10 10 10 10 12 13 13 12 13 12 11 11 12 12 11 12 14 15 15 14 13 12 12 12 13 13 14 16 17 19 20 21 22 23 24 26 27 28 29 30 31 31 31 32 32 32 33 34 34 35 35 35 35 35 35 35 36 36 36 35 34 33 33 32 31 32
16 15 15 14 13 12 11 11 9 8 8 9 10 10 11 11 10 11 11 9 8 7 8 10 12 14 12 9 9 11 12 12 12 12 13 14 14 14 13 13 13 13 13 14 15 16 17 18 20 21 22 23 24 25 27 27 28 29 30 30 30 31 31 32 33 33 34 35 35 36 36 36 36 36 37 37 36 36 36 35 34 33 33 32 32
15 16 16 16 14 12 10 10 9 8 8 8 8 8 9 10 11 11 9 8 8 7 6 9 13 13 10 11 12 11 11 11 11 12 13 14 14 13 14 14 14 14 14 15 16 17 18 19 20 21 22 23 25 26 27 27 28 29 29 30 30 31 32 32 33 34 34 35 35 36 36 36 36 37 37 37 37 37 37 37 36 35 34 34 33
15 18 19 17 15 13 11 10 10 9 8 8 8 8 9 11 11 10 8 7 8 7 7 9 11 11 12 12 10 9 9 10 11 13 14 14 14 14 15 15 15 15 15 15 16 17 18 19 20 21 22 23 25 26 27 27 28 29 30 30 31 32 32 33 33 34 34 35 35 35 36 36 36 36 37 37 38 38 38 38 38 37 36 35 35
16 19 19 17 15 14 12 11 11 9 8 7 8 8 9 10 10 10 9 8 7 7 8 9 9 9 9 8 8 9 9 11 13 14 14 14 15 15 15 15 15 15 15 16 17 18 19 20 20 21 22 24 25 26 27 28 29 29 30 31 32 32 33 33 33 34 34 35 35 35 35 36 36 36 37 38 38 39 39 39 39 39 38 36 35
17 18 17 15 15 15 13 12 11 10 8 8 9 9 9 9 9 9 9 8 7 7 7 7 7 7 8 8 9 10 11 13 14 15 15 15 15 16 15 15 15 15 16 16 17 18 19 20 20 22 23 24 25 26 28 29 29 30 31 31 32 32 33 33 34 34 34 34 35 35 36 36 37 37 38 38 39 40 40 40 40 40 40 39 37
18 19 17 15 15 16 14 12 11 10 9 9 9 9 9 10 10 8 8 7 6 7 7 6 7 7 8 9 11 12 13 15 16 16 16 16 16 16 15 15 15 15 16 17 18 18 19 20 21 22 23 25 26 27 28 29 30 31 31 32 32 33 33 34 34 34 34 34 35 36 36 37 38 38 39 40 40 41 41 42 42 42 42 42 41
19 20 18 16 15 16 15 13 12 11 9 9 9 9 10 11 9 8 7 6 6 6 7 7 8 9 10 11 12 13 15 15 16 16 16 16 15 15 15 15 15 16 16 17 18 19 20 21 22 23 24 25 26 27 28 30 30 31 32 32 33 33 34 35 35 35 35 35 36 36 37 38 38 39 40 40 41 42 43 43 44 45 45 45 45
17 19 17 16 15 15 15 15 14 12 11 10 9 10 12 11 9 8 7 5 5 5 7 8 9 10 11 12 13 15 16 15 15 15 15 15 15 15 16 16 17 17 17 18 19 20 21 22 23 24 25 26 26 28 29 30 31 32 33 34 34 35 35 36 36 36 36 36 37 37 38 38 39 40 41 42 43 44 45 45 46 47 47 47 47
17 17 16 16 15 15 16 16 14 13 11 10 10 11 12 11 9 9 7 5 5 5 7 8 10 11 12 13 14 16 16 16 16 16 16 16 16 17 17 18 18 18 19 20 21 22 22 23 24 24 25 26 27 29 30 32 33 34 35 35 36 36 37 37 38 38 38 38 38 39 39 39 40 42 43 44 45 46 47 48 48 48 49 49 49
17 17 15 15 16 16 16 16 15 13 11 11 12 12 12 11 10 10 9 7 6 6 6 9 11 12 13 14 15 16 17 17 17 17 17 18 18 18 18 19 20 20 21 22 22 23 23 24 25 26 27 28 29 30 32 33 35 35 36 37 38 38 38 39 39 39 39 39 39 39 40 41 42 44 46 47 48 49 50 50 51 51 51 51 51
18 17 16 15 16 16 17 18 17 14 12 13 13 12 12 11 10 11 11 10 9 8 8 10 12 14 15 16 17 17 18 18 18 18 18 18 19 19 20 21 21 22 23 23 23 24 25 26 26 27 28 29 30 32 34 35 36 37 38 39 39 39 39 39 39 39 40 40 40 41 42 43 45 46 48 49 50 51 52 52 52 52 52 52 52
20 19 18 17 17 17 18 19 18 16 14 14 14 13 13 13 12 12 13 12 11 11 11 12 13 15 17 17 18 18 18 19 19 19 19 20 21 21 22 22 23 23 23 24 24 25 27 28 29 29 30 31 33 34 36 38 39 39 39 40 40 40 39 39 40 40 41 41 41 42 44 45 47 48 49 51 51 52 52 52 52 52 52 51 52
24 22 21 19 18 19 20 20 20 19 17 16 15 14 14 15 14 14 14 13 12 13 14 14 15 16 17 18 18 19 20 20 20 20 21 21 22 22 22 22 22 23 24 25 26 27 29 30 30 31 32 33 35 37 39 40 40 40 40 40 40 40 40 40 41 42 42 42 43 45 46 48 49 50 51 51 52 52 52 52 51 51 51 51 51
23 22 22 20 21 21 21 21 21 20 18 17 16 16 17 17 16 15 15 14 14 14 15 16 17 17 17 18 19 19 20 20 20 21 21 22 22 22 22 23 23 25 26 27 28 29 30 31 32 33 34 36 37 39 41 41 41 41 41 41 41 41 41 42 43 43 44 45 46 48 49 51 52 52 52 52 53 53 52 52 52 52 52 52 52
24 24 23 22 22 22 22 22 23 22 20 18 17 19 19 18 18 17 17 15 15 16 16 17 18 18 18 19 19 19 19 20 21 22 23 23 24 24 24 25 26 27 27 29 30 31 32 33 34 35 36 37 39 40 42 43 43 43 43 42 42 42 43 44 45 45 45 47 49 51 52 53 53 53 53 53 53 53 53 53 53 53 54 54 54
23 25 26 25 24 23 23 24 24 22 20 19 21 22 21 19 19 18 17 16 16 16 16 17 18 18 18 17 17 17 18 20 22 23 24 25 25 25 26 26 27 28 29 30 31 32 34 35 36 37 37 38 39 40 42 43 44 44 43 42 42 42 43 45 45 46 47 49 51 52 53 53 54 54 53 53 53 53 53 54 54 54 55 55 55
19 22 24 25 26 26 25 25 24 23 21 22 24 23 21 19 19 19 18 17 17 17 16 16 17 18 17 15 16 17 19 21 23 24 24 25 25 25 25 26 27 29 30 31 33 34 35 35 35 36 37 38 40 41 42 43 44 43 42 41 41 42 43 45 46 47 48 50 51 52 53 53 53 53 53 53 53 53 54 54 55 55 55 55 54
22 21 22 24 26 27 26 26 25 23 23 25 25 22 20 20 20 20 19 18 18 17 16 16 17 17 17 16 17 18 20 22 23 23 23 23 24 24 25 27 28 30 31 32 33 34 34 34 35 37 38 39 40 40 41 41 41 41 40 40 41 42 44 45 46 47 48 50 51 51 51 51 52 52 52 52 52 53 53 54 54 54 54 54 53
24 24 24 25 27 27 26 26 25 23 25 26 23 21 21 21 20 20 19 19 19 18 18 18 18 18 18 18 18 20 21 22 22 22 22 23 24 25 26 28 29 31 32 33 34 34 34 35 37 38 38 39 38 38 38 39 39 38 39 40 41 42 43 44 46 48 49 49 50 50 50 50 51 51 51 51 51 52 52 52 52 52 52 52 52
22 24 26 27 27 26 26 25 24 24 26 26 24 23 23 22 21 20 20 20 20 19 19 19 20 19 19 20 20 22 22 22 22 22 24 25 26 27 28 30 32 33 34 35 35 35 35 36 37 37 37 36 35 36 36 36 37 37 39 40 41 42 43 44 46 47 48 48 48 48 49 49 49 49 49 50 50 50 50 49 49 49 49 50 52
20 23 26 28 28 28 27 25 25 26 28 27 26 25 25 23 22 21 22 22 21 20 20 20 20 20 20 21 21 23 23 23 23 24 25 26 27 29 30 31 33 35 36 37 37 36 35 36 36 34 33 33 34 35 35 35 36 38 39 40 40 41 43 45 46 47 47 47 47 48 48 48 48 48 48 48 48 47 47 46 47 47 48 50 51
22 23 26 28 29 29 27 26 27 29 29 28 27 26 25 24 24 24 25 24 23 21 21 21 21 21 21 21 22 23 24 24 25 25 26 27 28 29 30 32 33 34 36 37 36 34 32 32 31 30 31 32 33 34 34 35 37 37 38 39 40 42 44 44 45 45 45 46 46 46 46 46 46 46 46 46 45 45 45 45 45 47 48 49 50
23 23 24 26 28 29 28 28 29 30 29 29 28 26 26 26 26 27 28 27 25 23 23 23 23 22 23 23 24 25 25 25 26 26 27 28 28 29 30 31 32 33 33 33 31 29 28 28 29 30 31 32 33 33 34 36 36 37 37 39 41 42 43 43 43 43 44 45 45 45 45 45 45 44 44 43 43 42 43 44 45 47 48 48 48
26 25 24 25 27 28 29 30 30 31 30 30 29 27 27 28 27 28 29 28 27 26 26 25 24 25 26 26 25 25 25 26 26 27 27 27 28 29 30 31 32 33 33 31 28 27 28 29 30 31 31 32 33 34 35 35 35 36 38 40 41 41 41 41 42 43 44 44 44 44 44 43 43 42 42 41 40 41 42 44 45 46 46 47 47
25 26 26 27 28 29 30 31 32 32 31 31 29 27 27 28 27 27 29 30 31 31 30 28 27 27 28 25 24 25 26 26 26 26 27 27 28 29 30 31 31 32 32 30 28 28 28 29 29 30 30 32 33 34 34 34 35 37 38 39 39 39 40 41 42 42 43 42 42 42 42 41 41 40 40 39 39 40 41 43 44 44 44 45 45
21 23 25 27 28 29 30 31 32 32 31 30 28 27 28 29 28 27 27 31 35 36 34 32 30 28 26 24 24 25 26 26 25 25 26 27 28 29 30 30 30 29 29 28 27 27 27 27 28 29 30 32 33 33 33 34 36 37 38 38 38 38 39 41 41 41 41 41 41 40 40 39 39 38 38 37 38 39 41 41 42 42 43 43 44
21 22 24 26 28 29 30 31 32 32 31 30 28 28 28 28 28 27 27 31 37 41 37 32 28 25 23 23 24 25 25 25 24 24 25 26 28 29 29 28 28 27 26 26 25 25 26 26 28 29 31 31 32 32 33 34 36 36 37 37 37 38 40 40 40 40 40 39 39 38 38 38 37 37 36 36 37 39 39 40 40 41 42 42 44
24 24 25 26 28 29 29 30 31 31 30 29 29 29 28 27 26 27 27 27 29 32 30 25 22 21 22 23 25 24 23 23 23 23 25 26 27 27 27 26 26 25 24 24 24 24 25 27 28 30 30 31 31 32 33 34 35 35 35 36 37 38 39 39 38 38 37 37 36 36 36 36 35 35 35 35 37 38 38 39 40 40 41 42 43
26 26 27 27 28 29 29 29 30 30 28 28 29 28 27 26 25 25 24 20 17 19 20 19 19 20 22 23 23 22 21 21 22 24 25 26 26 26 25 25 24 23 23 22 23 24 26 28 29 29 30 30 31 32 33 33 33 33 34 36 37 38 38 37 36 35 35 34 34 34 34 34 34 34 34 34 36 37 37 39 39 40 41 41 42
28 28 28 29 29 29 30 30 29 28 27 27 27 26 24 23 22 21 20 17 15 16 17 18 19 21 21 21 20 20 20 21 23 24 25 25 25 24 24 24 23 22 22 23 24 25 27 28 29 29 30 30 31 31 32 32 32 33 34 36 37 36 35 34 33 33 32 32 33 33 33 33 32 32 32 33 35 36 37 38 39 39 40 40 41
29 29 28 29 30 29 29 28 27 26 26 25 24 23 21 20 20 18 17 17 17 17 18 19 20 20 20 20 20 20 21 22 23 23 23 23 23 23 23 23 22 22 23 24 25 26 27 28 28 29 29 29 30 30 30 30 31 33 35 35 35 33 32 32 31 31 31 31 32 32 32 31 31 31 31 32 34 35 36 37 38 38 39 39 40
29 29 28 29 30 30 29 27 25 25 24 23 22 21 20 18 18 18 18 18 18 19 19 20 20 20 20 20 20 21 22 22 23 23 23 23 22 22 22 22 22 23 23 24 25 26 27 27 28 28 28 28 29 29 29 30 32 33 34 33 32 31 30 29 29 29 29 30 31 31 31 30 30 30 31 32 33 34 35 36 37 38 38 38 39
28 28 29 29 30 30 28 27 25 23 22 22 22 21 19 18 18 18 19 19 19 20 20 20 21 21 21 21 21 22 22 23 23 23 23 22 22 22 22 22 22 23 24 24 25 26 26 27 27 27 27 28 28 28 29 31 32 33 32 31 30 29 28 27 27 28 28 29 29 30 29 29 29 30 30 31 32 33 34 35 36 37 37 37 38
29 29 29 29 30 29 28 27 25 23 22 22 21 21 20 19 19 19 19 20 20 20 20 21 21 21 21 21 22 23 23 23 23 22 22 21 21 21 21 21 22 23 23 24 25 25 26 26 26 26 27 27 27 28 29 31 31 31 30 28 27 26 26 25 26 27 27 28 28 29 29 29 29 30 30 30 31 32 33 34 35 35 36 36 37
31 30 30 30 30 29 28 26 25 24 23 22 22 22 21 20 19 19 20 20 21 21 21 22 22 22 22 22 23 23 23 23 22 21 21 21 21 21 21 21 22 23 23 24 24 25 25 25 25 25 26 26 27 28 30 30 30 29 27 26 25 24 24 24 25 26 27 27 28 28 28 29 29 30 30 31 31 31 32 33 33 34 35 36 37
31 30 30 30 30 28 27 26 26 25 24 23 23 23 22 20 20 21 22 22 23 23 23 23 23 23 23 23 23 23 23 22 21 20 20 20 20 20 20 21 22 22 23 24 24 24 24 24 25 25 25 26 27 28 29 29 28 26 24 23 22 22 23 24 25 26 26 27 27 27 28 29 29 30 30 31 31 31 31 32 32 33 34 35 36
31 30 29 30 30 29 28 28 27 26 26 25 24 24 24 23 23 23 24 25 25 25 24 24 24 24 24 24 23 23 22 21 20 19 19 19 20 20 21 22 22 23 23 24 24 23 23 24 24 25 25 26 27 28 28 27 25 23 22 21 21 22 22 23 24 25 26 26 27 27 28 28 29 29 29 30 30 31 31 31 32 32 32 33 34
31 30 29 29 30 31 31 30 29 28 28 27 26 26 26 26 26 25 26 27 26 26 26 26 26 25 24 23 23 22 21 20 19 19 19 19 20 20 21 22 22 23 23 23 23 23 23 24 24 24 25 26 27 27 26 24 22 21 20 20 20 21 22 23 23 24 25 25 26 27 27 28 28 29 29 29 30 30 30 31 31 31 32 32 32
32 31 30 30 31 32 32 32 31 30 30 30 29 29 28 28 28 27 27 27 27 27 27 27 27 25 24 23 22 22 21 19 19 19 19 20 21 21 22 22 22 23 23 23 23 23 23 23 23 24 24 26 26 25 24 21 20 18 18 18 19 20 21 22 23 24 25 25 26 27 27 28 28 29 29 30 30 30 31 31 31 31 31 31 31
Wind_Direction
259 256 256 257 257 254 252 250 249 248 245 243 246 249 252 258 263 264 264 264 263 265 267 268 268 265 262 261 258 257 260 262 265 266 265 265 260 259 266 257 242 251 269 268 269 274 282 288 288 291 294 300 304 306 308 308 309 309 311 312 314 316 316 318 318 318 318 317 317 316 316 316 314 314 314 314 314 314 313 314 315 316 316 316 316
259 255 257 259 258 254 253 255 253 248 243 244 247 248 256 263 263 266 268 263 262 263 266 268 269 267 265 263 259 257 258 259 260 260 260 258 253 254 260 251 245 267 277 272 275 278 284 286 286 292 297 302 305 306 307 307 308 310 311 312 313 314 315 316 316 316 316 316 316 317 317 317 315 314 315 315 314 315 315 315 315 316 316 315 315
257 252 252 256 258 255 255 256 253 250 247 246 248 249 258 265 265 268 271 267 265 265 266 268 267 265 264 264 263 261 260 260 259 258 255 251 248 250 251 250 258 272 267 266 272 276 280 282 287 296 300 303 304 305 307 308 310 311 311 311 310 310 311 312 312 313 314 314 314 315 316 316 316 315 315 315 314 313 313 312 313 313 314 314 314
254 250 249 252 255 254 254 255 255 255 252 250 248 250 259 267 268 270 271 270 268 266 265 266 266 263 261 263 265 265 261 259 260 258 252 250 250 246 245 253 261 255 253 260 266 269 276 282 291 298 300 302 302 304 306 308 308 309 309 309 308 308 308 308 308 309 311 312 312 312 312 312 313 314 314 313 312 311 311 311 311 311 312 312 313
253 251 251 252 252 251 251 252 254 256 254 251 251 253 260 266 269 271 272 271 268 265 266 269 268 262 260 262 264 265 260 255 254 252 251 252 247 239 240 247 245 240 248 257 261 268 277 284 291 296 298 299 301 303 304 304 304 305 305 304 305 306 306 307 307 308 308 308 308 308 308 308 309 310 310 311 310 310 311 312 311 311 311 311 311
252 249 251 253 252 250 250 251 253 253 251 251 253 256 262 267 270 271 270 268 267 267 269 270 265 258 260 262 258 256 252 246 245 245 242 237 232 232 236 238 238 243 252 258 265 275 281 286 291 293 295 297 299 300 299 299 300 300 301 301 302 303 305 307 307 307 307 306 306 306 306 305 305 305 306 307 308 309 310 311 310 309 309 309 309
249 245 244 246 248 249 252 257 255 250 248 252 253 255 260 263 266 268 266 264 268 271 272 272 267 259 262 264 258 251 245 240 238 233 222 222 232 240 238 239 246 253 259 265 273 280 283 287 290 291 293 293 295 294 294 296 297 298 300 300 301 302 304 305 306 306 307 306 306 306 306 306 305 305 304 303 304 306 307 307 306 305 305 305 305
250 248 245 242 241 244 253 262 258 249 247 253 254 253 254 258 265 270 269 269 270 269 269 272 269 264 266 267 258 248 242 239 234 226 223 235 250 251 242 247 255 260 266 273 279 283 285 288 289 290 290 291 291 292 293 295 296 299 300 300 301 303 304 305 305 307 307 307 307 307 307 306 305 305 304 303 301 301 302 303 303 302 301 301 301
254 252 251 248 241 238 248 259 255 247 248 253 254 251 251 257 267 270 270 269 268 265 263 263 264 264 265 262 254 247 241 234 229 232 240 252 257 249 249 254 259 266 273 277 281 284 287 288 289 289 289 289 290 291 294 296 298 299 300 301 303 305 306 307 307 308 307 307 307 307 306 306 305 305 304 303 301 299 298 297 298 299 299 299 299
254 253 254 253 243 237 243 250 247 246 250 254 253 247 247 252 256 261 269 270 267 264 258 255 257 259 257 252 246 239 228 224 235 247 253 255 252 248 252 256 260 267 272 276 279 282 284 286 286 287 287 288 290 292 295 297 299 301 302 303 305 307 308 309 309 309 308 308 307 306 305 304 304 304 303 302 301 301 300 298 297 296 296 297 297
255 252 253 252 244 236 237 242 243 245 250 253 249 243 241 234 236 265 286 281 270 261 253 248 248 250 243 230 221 217 221 241 255 254 251 249 249 250 253 256 260 264 267 271 275 279 282 284 284 285 286 288 291 294 297 299 301 302 304 305 307 308 309 309 310 310 310 310 308 307 306 305 304 303 302 301 301 301 301 300 299 297 296 295 295
254 250 249 249 244 236 234 238 242 244 251 253 247 241 230 220 237 281 292 286 272 255 241 236 234 226 209 195 201 223 247 259 256 247 244 245 247 250 253 255 258 260 265 270 275 279 281 283 285 286 288 291 294 297 299 301 302 303 304 306 308 308 309 310 311 312 312 311 310 309 309 308 307 305 304 303 302 301 300 300 298 298 297 295 295
244 244 241 240 239 234 232 237 242 246 253 252 241 233 225 226 254 281 286 280 269 249 231 224 210 191 185 205 242 260 258 254 249 245 245 247 249 253 254 255 258 262 268 273 276 280 282 284 286 288 291 294 296 298 299 300 302 303 305 306 307 308 309 311 312 312 312 311 310 311 311 311 309 308 307 306 305 304 303 302 301 300 299 297 296
235 236 233 232 233 233 234 237 242 246 251 249 240 232 230 241 258 273 281 273 259 246 225 209 197 194 223 265 273 263 250 247 248 248 248 251 253 255 256 257 261 265 270 274 277 280 282 285 287 290 293 295 296 297 298 300 301 303 305 306 307 309 310 311 312 312 311 311 311 311 311 311 310 310 309 308 307 306 305 305 304 303 302 300 298
233 234 233 230 229 230 232 234 238 241 242 244 242 236 238 248 259 267 272 262 249 243 233 225 225 238 261 271 264 252 248 246 247 248 251 253 255 256 258 261 265 269 273 275 278 280 283 285 288 291 293 295 296 297 298 299 301 303 304 306 308 310 312 312 312 311 311 311 312 312 311 311 310 309 308 308 307 306 306 305 304 303 301 300 298
231 234 234 230 228 228 228 232 238 238 235 235 239 241 246 255 265 269 265 254 247 245 243 244 248 251 254 251 250 251 250 249 249 251 253 254 257 259 262 265 269 272 273 275 278 280 283 286 289 292 293 294 295 296 298 299 301 303 305 308 310 312 312 312 312 311 311 312 312 311 311 310 310 308 308 307 306 306 305 305 304 304 302 300 298
231 235 234 230 230 228 224 229 238 239 235 234 238 245 251 260 269 270 260 248 243 246 244 241 238 236 236 237 244 248 248 250 251 253 256 258 261 263 265 268 270 272 274 277 280 282 285 288 290 291 292 292 294 295 297 299 301 304 308 310 311 312 312 312 311 311 311 311 311 310 311 310 309 308 308 307 306 306 306 305 305 304 304 302 300
232 235 233 232 232 227 223 229 238 241 240 237 242 248 254 265 270 261 249 238 234 236 236 234 230 231 235 238 244 248 249 251 254 257 260 262 263 264 266 269 271 274 277 279 281 283 286 288 289 289 290 291 293 295 297 299 303 306 309 311 311 311 312 311 311 311 311 310 310 310 311 310 309 309 308 308 308 307 307 306 305 305 304 303 302
233 232 230 230 228 224 223 229 237 242 243 244 251 254 257 267 266 243 232 233 229 226 223 229 234 235 239 244 248 251 253 256 260 262 264 265 266 267 269 272 273 275 277 279 282 283 285 287 288 289 290 291 293 296 298 301 304 307 309 310 311 312 312 312 311 310 310 309 310 310 310 310 309 309 309 308 308 307 306 305 304 303 302 302 301
228 225 224 225 224 224 226 230 236 241 246 254 259 257 258 262 251 229 225 236 241 233 222 225 236 242 247 251 254 257 260 262 263 263 263 265 268 270 273 274 274 275 278 281 283 285 285 287 288 290 291 293 295 298 300 303 306 308 309 310 310 311 312 312 311 309 308 308 309 309 310 310 309 309 309 308 307 306 305 304 302 301 300 299 299
223 226 226 225 225 228 231 234 238 242 250 261 259 254 254 248 233 221 224 242 262 260 237 230 239 248 253 258 261 263 266 267 267 265 266 269 271 273 274 275 276 278 280 282 284 285 286 289 291 293 295 296 298 300 302 305 306 308 308 308 309 311 312 311 310 308 308 308 309 310 310 310 309 309 308 307 307 306 305 304 303 301 300 299 298
226 233 234 232 230 231 236 240 242 244 251 258 254 250 244 233 223 220 228 248 266 272 254 239 241 248 254 259 262 266 269 271 271 271 271 272 273 274 275 276 277 278 280 282 284 286 289 291 294 296 298 299 300 302 304 305 306 307 307 308 308 310 311 310 309 308 308 309 310 310 310 309 309 308 308 307 307 307 306 305 304 302 301 300 299
232 237 236 235 234 235 239 244 246 249 251 253 251 246 237 230 227 226 234 247 256 262 258 245 241 244 249 254 257 262 266 268 270 270 270 271 271 273 274 275 276 278 281 284 286 289 291 294 296 297 299 301 302 303 304 305 305 306 307 307 308 309 310 310 309 309 309 309 309 309 309 309 309 308 308 308 307 307 306 305 303 302 301 300 299
243 243 238 237 239 240 243 246 250 252 251 252 251 246 240 236 233 232 238 246 247 249 252 248 244 244 246 250 253 257 261 263 265 267 268 270 271 272 273 274 277 280 283 286 288 291 293 295 297 298 300 302 303 304 304 304 305 306 306 307 307 308 309 309 309 308 309 309 309 310 309 309 309 308 308 308 307 306 305 304 302 301 300 299 298
246 244 241 240 241 243 245 246 250 251 249 252 254 249 243 238 236 238 242 246 244 244 247 246 245 243 245 250 255 260 262 263 265 267 269 272 273 275 276 278 280 283 285 288 290 292 294 295 297 299 301 302 303 304 303 303 305 307 307 307 307 307 308 308 308 308 309 310 310 310 310 309 309 308 308 308 307 306 305 303 302 301 299 298 297
240 241 240 238 238 240 242 244 248 248 248 252 252 248 242 238 238 240 241 242 242 242 244 244 244 246 251 259 264 267 268 268 269 270 271 274 276 278 281 282 285 286 288 290 291 293 294 296 298 300 301 302 303 303 303 304 307 308 307 307 306 306 307 308 309 309 310 310 310 310 310 309 309 309 309 308 307 306 305 303 302 301 300 299 298
233 236 237 237 238 239 240 242 245 246 246 248 248 245 242 238 238 239 240 241 241 243 246 248 250 255 262 268 270 270 271 270 271 272 273 276 278 281 284 286 287 289 290 291 292 294 296 297 299 300 301 302 303 303 304 306 308 308 307 306 306 306 306 307 309 310 310 311 311 311 310 310 309 309 308 307 306 305 304 303 302 301 301 301 300
231 235 237 237 238 239 240 241 243 244 244 244 245 245 242 238 239 241 243 245 247 249 252 253 256 261 265 269 270 270 270 271 272 273 275 277 279 282 285 287 289 290 291 293 294 295 296 296 298 300 301 302 302 304 305 307 309 309 308 307 306 306 306 308 309 310 311 312 312 311 311 310 309 308 307 306 305 305 304 304 304 304 303 303 302
235 239 239 239 239 239 240 240 241 240 241 243 245 245 240 237 241 245 247 250 251 252 253 255 258 258 260 266 270 271 271 270 271 272 274 276 279 283 286 288 289 290 292 293 294 295 296 297 299 301 302 302 303 305 307 308 310 310 309 308 307 307 307 309 310 311 312 312 312 312 311 311 310 309 308 308 308 307 307 307 307 306 306 305 305
239 240 240 238 238 238 238 239 239 239 241 244 243 241 238 238 241 245 249 253 253 251 252 256 256 255 258 266 270 270 269 268 269 271 274 277 280 284 286 287 289 291 292 294 295 296 297 299 301 302 302 302 304 306 307 309 309 309 309 308 307 307 308 309 310 311 312 313 312 312 312 312 312 312 312 312 313 313 312 312 311 310 310 309 309
234 234 236 236 236 235 236 238 240 242 243 241 238 237 238 239 242 247 252 253 251 248 249 252 253 257 262 266 267 267 266 266 268 271 274 278 281 285 287 290 291 292 293 295 296 297 298 299 300 300 301 302 304 306 307 307 308 308 308 307 307 307 308 310 311 312 313 313 313 313 313 313 314 315 316 316 317 317 317 316 316 315 314 314 313
231 230 232 234 234 234 235 239 242 242 240 238 236 234 234 237 242 246 249 247 245 243 244 248 253 258 261 262 261 262 264 267 271 275 278 282 286 289 291 292 293 293 294 296 296 297 297 297 298 299 300 302 303 304 305 306 307 307 307 306 307 308 310 312 313 313 313 313 313 313 314 315 316 318 319 320 320 319 319 319 318 318 317 317 316
239 235 232 231 232 233 234 236 238 237 236 238 239 233 230 236 241 241 240 240 240 241 244 249 254 256 257 256 257 260 264 269 274 278 282 286 289 291 292 292 293 294 295 296 296 296 297 298 298 299 300 301 302 303 304 305 306 306 306 307 309 311 312 313 313 313 313 313 314 315 316 318 320 321 321 321 321 320 320 320 320 320 320 320 320
248 243 237 234 234 233 233 232 234 234 236 240 242 236 232 236 238 238 239 239 239 241 245 249 253 254 254 253 255 260 265 271 277 281 285 288 290 291 292 292 293 294 295 295 295 295 297 298 299 299 300 300 301 303 304 305 305 305 306 309 311 312 313 313 313 313 314 314 316 317 319 321 322 323 323 322 322 322 322 322 322 323 323 323 323
242 241 240 241 240 237 234 232 233 235 237 240 241 237 235 237 238 238 238 238 240 244 248 250 251 251 251 252 256 262 268 275 280 284 287 289 291 293 293 294 294 295 296 296 294 293 295 297 298 298 299 300 302 304 304 304 304 306 309 311 312 312 313 313 313 314 315 317 318 320 322 323 324 324 323 323 323 324 324 325 326 326 327 328 328
238 239 239 240 239 237 235 233 233 234 236 239 240 239 239 242 244 243 240 239 242 247 250 251 250 248 250 253 258 264 270 276 281 285 288 291 294 295 295 296 296 295 294 294 291 288 291 294 296 298 300 302 303 303 302 303 306 309 310 311 312 312 313 313 315 316 318 320 322 323 324 324 324 324 325 325 326 326 327 329 330 330 331 332 334
237 237 237 237 237 237 236 235 235 235 237 240 241 241 241 244 247 247 245 244 246 248 249 249 248 250 252 254 259 265 271 278 282 287 291 293 295 295 295 296 296 295 293 292 290 289 290 294 297 300 301 302 301 301 302 306 308 310 311 312 312 313 314 315 317 319 321 323 324 325 325 325 325 326 327 327 328 329 331 332 333 334 335 337 338
234 234 236 238 239 238 238 237 237 237 238 240 241 241 242 245 247 249 252 253 249 245 244 247 249 252 252 253 260 268 275 280 285 289 292 292 293 293 294 296 296 295 294 293 293 294 295 298 300 301 300 299 299 302 306 309 310 311 312 313 313 314 316 318 320 322 324 325 325 326 326 326 327 328 329 330 331 333 334 335 335 337 339 340 341
236 234 235 237 238 238 239 239 239 238 238 239 240 242 243 246 249 251 257 260 250 240 240 248 251 250 250 255 265 273 277 282 285 288 289 289 290 291 293 294 295 295 294 294 295 297 299 300 300 299 298 299 302 306 309 310 312 313 313 313 315 317 319 321 322 324 326 326 326 326 327 328 329 330 331 333 335 336 336 337 339 341 342 343 345
238 236 235 236 237 237 238 239 240 239 239 240 241 243 243 247 250 251 257 264 254 241 241 248 249 248 254 261 268 273 276 281 285 286 287 287 288 290 292 294 295 295 294 295 297 298 299 299 298 297 299 303 306 309 311 312 312 313 313 315 318 320 322 323 325 326 326 326 327 328 329 330 332 333 334 336 337 338 339 341 343 345 345 347 349
238 236 235 236 237 236 236 237 238 239 239 240 241 243 244 246 250 253 258 263 255 240 241 246 248 252 258 263 268 273 278 283 285 286 287 287 288 291 293 294 295 295 296 297 298 298 297 297 297 299 303 307 309 310 311 312 312 313 316 318 320 322 324 325 326 326 326 327 328 330 331 333 334 335 337 338 339 340 342 345 347 348 349 351 352
239 236 233 234 236 236 235 236 237 238 238 238 240 242 244 246 249 254 256 252 243 238 243 249 252 256 261 266 272 278 282 285 286 287 288 288 290 292 293 294 295 296 297 298 298 297 297 297 300 303 306 308 309 310 311 312 314 316 319 321 322 324 325 326 326 326 327 329 330 332 334 336 336 337 339 340 341 343 346 348 350 352 353 353 354
240 236 233 232 234 235 236 236 237 237 236 236 237 240 242 244 244 244 244 241 240 243 247 251 254 260 267 273 278 281 284 285 286 287 288 290 291 292 293 294 295 296 297 298 297 297 298 300 303 305 307 309 309 311 312 314 317 319 321 322 324 325 326 326 326 327 329 331 333 336 338 338 338 339 341 341 343 346 349 351 353 354 354 355 356
239 237 233 231 232 234 235 236 236 235 234 232 233 236 238 237 235 234 236 239 242 245 248 253 260 267 272 276 279 282 283 286 287 288 290 291 292 293 293 294 295 295 296 297 297 298 300 301 304 306 308 310 311 313 315 317 319 320 322 323 325 326 326 326 327 330 333 335 338 340 339 339 341 342 342 343 346 349 350 352 354 356 356 357 358
237 238 234 231 231 232 232 232 233 233 231 230 231 233 234 233 233 235 237 240 243 246 251 258 265 270 274 277 279 281 283 285 286 287 288 289 289 290 290 291 293 294 295 296 297 299 301 303 306 308 309 311 313 315 317 318 319 321 323 325 326 326 326 328 331 333 335 338 340 340 340 342 344 344 344 346 348 349 351 353 355 357 358 359 359
236 238 235 231 230 230 229 228 229 230 230 230 231 233 234 235 236 237 238 241 246 250 256 262 268 272 275 276 277 278 280 282 283 283 283 284 284 286 287 289 292 293 295 296 297 299 302 305 307 309 311 312 314 316 317 319 321 323 325 325 325 326 328 331 333 335 338 341 342 341 343 346 346 345 346 348 349 350 352 353 355 357 358 360 1
234 235 233 230 229 228 226 225 227 229 229 229 232 235 238 239 239 240 242 246 250 254 260 266 271 273 273 273 274 277 279 280 279 278 278 279 281 284 287 290 292 294 295 296 297 300 304 306 308 310 312 313 315 316 318 321 323 324 325 325 325 327 330 333 336 338 341 343 342 343 346 348 347 347 348 349 350 352 352 353 354 356 358 360 2
232 231 230 229 227 226 223 222 224 227 228 229 232 236 240 241 240 241 245 249 252 256 263 269 273 273 272 273 275 277 278 277 276 275 275 278 281 284 288 290 292 293 294 296 299 302 305 307 309 311 312 313 315 318 320 322 323 324 324 324 326 330 334 336 339 342 343 343 343 346 348 349 349 349 350 350 351 352 352 352 354 356 357 360 2
228 228 227 227 226 223 221 219 221 224 227 230 233 235 237 239 241 243 247 250 253 258 265 271 273 273 272 274 275 277 276 274 273 273 275 279 282 285 289 291 291 292 294 297 301 304 306 308 310 311 312 314 317 319 321 322 323 322 323 325 329 333 337 339 342 343 343 342 345 348 350 350 350 350 351 351 351 352 352 353 354 355 357 359 1
227 227 227 226 224 222 221 220 220 222 226 230 233 234 235 239 242 245 248 250 254 260 267 272 273 273 273 274 275 274 273 272 272 273 275 279 283 286 289 290 290 292 295 299 302 304 307 309 310 311 312 315 318 320 321 321 321 321 324 329 333 336 339 341 342 342 342 343 346 349 349 349 349 350 350 351 351 352 353 353 354 354 356 358 359
227 227 226 225 224 223 223 222 222 224 226 229 231 232 234 237 242 246 249 252 256 263 269 272 273 273 274 273 272 272 271 271 271 273 275 279 283 286 289 289 290 293 297 300 303 305 307 309 309 310 313 317 319 320 319 319 319 322 327 331 334 337 339 340 341 341 342 345 347 348 349 348 348 349 350 350 351 352 352 353 354 355 356 357 358
Height
5803 5805 5807 5807 5808 5809 5811 5813 5816 5817 5817 5819 5821 5823 5824 5826 5826 5827 5828 5829 5830 5830 5831 5832 5834 5834 5833 5834 5835 5835 5837 5837 5838 5839 5839 5840 5840 5840 5841 5842 5843 5843 5842 5843 5843 5842 5841 5841 5841 5841 5841 5841 5840 5840 5839 5839 5838 5837 5837 5836 5835 5834 5833 5832 5830 5830 5828 5827 5826 5825 5824 5822 5820 5819 5817 5816 5814 5813 5811 5810 5809 5808 5807 5806 5805
5801 5803 5804 5805 5806 5807 5809 5811 5813 5814 5815 5817 5819 5820 5822 5824 5825 5825 5826 5826 5827 5828 5829 5831 5832 5832 5832 5833 5833 5834 5835 5835 5836 5836 5837 5838 5839 5839 5840 5840 5840 5840 5840 5841 5841 5840 5840 5840 5839 5839 5839 5839 5839 5838 5838 5837 5836 5836 5835 5834 5833 5832 5831 5830 5829 5828 5827 5826 5824 5823 5822 5821 5819 5817 5815 5814 5812 5811 5809 5807 5806 5805 5805 5804 5803
5799 5801 5802 5802 5804 5805 5807 5808 5810 5811 5813 5814 5816 5818 5819 5821 5822 5823 5823 5823 5824 5825 5827 5829 5829 5829 5831 5831 5831 5832 5833 5834 5834 5835 5836 5836 5837 5838 5838 5838 5837 5838 5840 5841 5840 5839 5839 5838 5838 5838 5838 5838 5837 5837 5836 5835 5835 5834 5833 5833 5832 5830 5829 5828 5827 5826 5825 5824 5823 5822 5820 5819 5817 5815 5814 5812 5811 5809 5808 5806 5805 5803 5802 5802 5801
5796 5798 5800 5801 5802 5802 5804 5805 5807 5809 5811 5812 5814 5815 5817 5818 5820 5821 5821 5821 5821 5822 5824 5825 5826 5827 5828 5828 5829 5829 5831 5832 5833 5833 5834 5835 5836 5836 5837 5837 5838 5839 5840 5840 5839 5838 5837 5836 5836 5836 5836 5836 5835 5835 5834 5834 5833 5832 5832 5831 5830 5828 5827 5826 5825 5824 5823 5822 5821 5820 5819 5817 5816 5814 5812 5810 5809 5808 5806 5805 5803 5801 5800 5799 5798
5794 5795 5797 5799 5800 5800 5801 5803 5805 5807 5809 5810 5812 5813 5815 5816 5817 5818 5818 5818 5818 5819 5821 5822 5823 5824 5825 5826 5826 5827 5828 5830 5831 5832 5832 5833 5834 5835 5837 5838 5838 5839 5839 5838 5837 5836 5835 5835 5834 5834 5834 5834 5834 5833 5833 5832 5832 5831 5830 5829 5828 5827 5825 5824 5823 5822 5821 5819 5818 5817 5816 5815 5814 5813 5811 5808 5807 5805 5804 5803 5801 5799 5798 5796 5795
5793 5794 5796 5797 5798 5798 5799 5801 5803 5806 5807 5808 5810 5812 5813 5814 5815 5815 5815 5816 5816 5817 5818 5818 5820 5821 5823 5824 5825 5826 5827 5828 5829 5830 5831 5832 5833 5835 5836 5836 5837 5836 5836 5835 5834 5833 5833 5833 5832 5832 5832 5832 5832 5831 5831 5830 5830 5829 5829 5827 5826 5825 5823 5822 5820 5819 5818 5817 5816 5814 5814 5813 5811 5811 5810 5807 5804 5802 5802 5801 5799 5797 5795 5794 5793
5792 5793 5794 5795 5796 5796 5798 5799 5801 5803 5804 5806 5808 5810 5811 5812 5813 5813 5813 5814 5814 5815 5816 5816 5817 5819 5821 5822 5823 5825 5826 5827 5828 5829 5831 5832 5833 5833 5833 5833 5833 5833 5832 5832 5832 5832 5831 5831 5831 5831 5830 5830 5830 5830 5829 5829 5828 5827 5827 5825 5824 5823 5822 5820 5818 5816 5815 5814 5813 5812 5810 5809 5808 5807 5807 5806 5804 5801 5798 5797 5797 5795 5794 5792 5790
5790 5790 5791 5793 5793 5794 5795 5796 5797 5799 5802 5803 5806 5808 5809 5810 5811 5811 5811 5812 5812 5813 5814 5814 5815 5816 5817 5819 5821 5823 5825 5826 5827 5829 5830 5831 5831 5830 5830 5830 5830 5830 5830 5830 5830 5830 5830 5829 5829 5829 5829 5828 5828 5828 5827 5827 5826 5825 5824 5823 5822 5821 5819 5818 5816 5814 5813 5811 5810 5808 5807 5806 5804 5803 5803 5802 5801 5800 5798 5795 5793 5793 5791 5789 5788
5787 5788 5789 5791 5792 5793 5793 5794 5796 5798 5800 5801 5803 5805 5807 5808 5809 5810 5809 5809 5810 5811 5812 5813 5813 5814 5815 5816 5819 5821 5823 5824 5825 5827 5828 5828 5828 5828 5828 5828 5828 5828 5828 5828 5829 5828 5828 5827 5827 5827 5827 5826 5826 5826 5825 5825 5824 5823 5822 5820 5819 5818 5816 5815 5814 5812 5811 5809 5807 5805 5804 5802 5801 5800 5799 5797 5797 5797 5796 5794 5792 5790 5788 5786 5784
5785 5787 5788 5789 5790 5791 5792 5793 5795 5797 5799 5800 5801 5803 5805 5806 5807 5807 5808 5808 5808 5808 5809 5811 5811 5811 5813 5815 5817 5819 5820 5822 5823 5824 5825 5825 5826 5826 5827 5826 5826 5827 5827 5827 5827 5826 5826 5826 5825 5825 5825 5824 5824 5823 5823 5822 5821 5820 5818 5817 5816 5814 5813 5812 5810 5809 5807 5806 5805 5803 5801 5800 5798 5796 5795 5793 5792 5791 5791 5791 5789 5788 5786 5783 5781
5785 5786 5787 5788 5788 5789 5791 5792 5794 5796 5798 5799 5800 5801 5803 5804 5805 5805 5806 5806 5806 5806 5807 5808 5809 5810 5811 5813 5815 5817 5819 5821 5822 5822 5823 5824 5825 5825 5825 5825 5825 5825 5825 5825 5825 5824 5824 5824 5823 5823 5823 5822 5822 5821 5820 5819 5818 5817 5815 5814 5813 5811 5809 5808 5807 5805 5804 5802 5801 5800 5798 5797 5795 5794 5792 5790 5788 5787 5786 5785 5784 5783 5782 5781 5778
5784 5786 5787 5787 5787 5789 5790 5791 5793 5795 5797 5798 5798 5799 5801 5802 5803 5804 5804 5804 5804 5805 5805 5806 5807 5808 5810 5812 5815 5817 5818 5820 5821 5821 5822 5823 5823 5823 5824 5824 5823 5823 5823 5823 5823 5822 5822 5822 5822 5821 5821 5820 5819 5818 5817 5816 5815 5813 5812 5811 5810 5808 5806 5805 5803 5801 5800 5799 5797 5796 5794 5793 5791 5789 5788 5786 5785 5784 5782 5781 5780 5779 5778 5776 5774
5783 5785 5786 5786 5787 5788 5789 5791 5792 5794 5796 5797 5797 5798 5799 5801 5801 5802 5802 5803 5803 5803 5803 5805 5806 5808 5810 5812 5814 5816 5818 5819 5819 5820 5821 5821 5822 5822 5822 5822 5822 5821 5821 5821 5821 5820 5820 5820 5819 5819 5818 5817 5816 5815 5814 5813 5812 5811 5809 5808 5807 5805 5803 5802 5800 5798 5797 5795 5793 5792 5790 5788 5786 5785 5783 5781 5780 5779 5777 5776 5776 5775 5774 5772 5771
5782 5784 5785 5785 5786 5787 5788 5790 5792 5794 5795 5796 5797 5797 5798 5799 5800 5800 5801 5801 5802 5802 5803 5804 5806 5808 5810 5812 5813 5815 5816 5817 5817 5818 5819 5820 5820 5820 5820 5820 5820 5819 5819 5819 5819 5818 5818 5817 5817 5816 5815 5814 5813 5812 5811 5810 5809 5808 5807 5805 5804 5802 5800 5798 5797 5795 5793 5792 5790 5788 5786 5784 5782 5781 5779 5777 5775 5774 5772 5771 5771 5770 5768 5767 5766
5780 5782 5783 5785 5786 5786 5788 5789 5791 5793 5794 5795 5796 5796 5796 5797 5798 5799 5799 5800 5800 5801 5802 5803 5805 5807 5809 5810 5812 5813 5814 5815 5816 5817 5818 5818 5818 5818 5818 5818 5818 5817 5817 5817 5816 5816 5815 5815 5814 5813 5813 5812 5811 5810 5809 5808 5806 5805 5804 5803 5801 5799 5797 5795 5793 5792 5790 5789 5787 5785 5783 5781 5779 5777 5775 5773 5771 5769 5768 5766 5765 5765 5764 5763 5762
5779 5780 5781 5784 5785 5785 5787 5788 5790 5792 5793 5794 5795 5795 5795 5796 5797 5797 5798 5799 5799 5800 5800 5802 5803 5805 5807 5809 5810 5811 5812 5813 5814 5815 5815 5816 5816 5816 5816 5816 5815 5815 5815 5814 5813 5813 5813 5812 5811 5811 5810 5809 5808 5807 5806 5805 5804 5802 5801 5799 5797 5795 5794 5792 5790 5789 5787 5785 5783 5781 5779 5777 5775 5773 5771 5769 5767 5765 5763 5761 5760 5759 5758 5758 5757
5778 5778 5780 5782 5783 5784 5786 5787 5789 5791 5792 5793 5793 5794 5794 5795 5795 5796 5796 5797 5798 5798 5799 5800 5802 5804 5805 5807 5808 5809 5810 5811 5812 5813 5813 5813 5814 5814 5814 5813 5813 5812 5812 5811 5811 5810 5810 5809 5809 5808 5808 5807 5806 5805 5803 5802 5801 5799 5798 5796 5794 5792 5791 5789 5787 5785 5784 5782 5779 5777 5775 5773 5771 5769 5767 5765 5762 5760 5758 5756 5754 5752 5751 5751 5750
5776 5777 5779 5780 5781 5782 5784 5786 5787 5789 5790 5791 5792 5792 5793 5793 5794 5794 5795 5796 5797 5797 5798 5799 5801 5803 5804 5805 5806 5807 5809 5810 5810 5811 5811 5811 5811 5811 5811 5811 5810 5810 5809 5809 5808 5808 5808 5807 5807 5806 5805 5804 5803 5802 5801 5799 5798 5796 5794 5793 5791 5789 5787 5786 5784 5782 5780 5778 5776 5774 5772 5770 5767 5765 5763 5760 5758 5756 5753 5751 5748 5746 5745 5743 5743
5774 5775 5777 5779 5780 5781 5783 5784 5786 5787 5788 5789 5790 5791 5791 5792 5792 5793 5793 5794 5795 5796 5797 5798 5800 5801 5802 5803 5805 5806 5807 5808 5809 5809 5809 5809 5809 5809 5808 5808 5807 5807 5807 5807 5806 5806 5806 5805 5804 5803 5803 5801 5800 5799 5797 5796 5794 5793 5791 5789 5788 5786 5784 5782 5780 5779 5777 5775 5772 5770 5768 5766 5763 5761 5758 5756 5753 5751 5749 5746 5743 5741 5739 5737 5735
5772 5773 5775 5777 5779 5780 5782 5783 5784 5786 5787 5788 5789 5790 5790 5790 5791 5792 5792 5793 5794 5795 5796 5797 5799 5800 5801 5802 5803 5804 5805 5806 5806 5807 5807 5807 5806 5806 5806 5805 5805 5805 5805 5805 5805 5804 5804 5803 5802 5801 5799 5798 5797 5795 5794 5792 5791 5789 5788 5786 5784 5782 5780 5779 5777 5775 5773 5771 5768 5766 5764 5761 5759 5756 5753 5751 5749 5746 5744 5741 5739 5736 5733 5731 5729
5770 5772 5774 5776 5778 5779 5781 5782 5783 5784 5785 5786 5788 5788 5788 5789 5790 5790 5791 5791 5792 5793 5795 5796 5797 5798 5799 5800 5801 5802 5802 5803 5804 5804 5804 5804 5804 5804 5803 5803 5803 5803 5803 5803 5802 5802 5801 5800 5799 5797 5796 5795 5793 5792 5790 5789 5787 5786 5784 5782 5780 5778 5777 5775 5773 5771 5768 5766 5764 5762 5759 5757 5754 5751 5749 5746 5744 5741 5739 5736 5733 5730 5727 5725 5723
5768 5770 5773 5774 5776 5778 5779 5781 5782 5783 5784 5785 5786 5786 5787 5788 5788 5789 5790 5790 5791 5792 5793 5794 5796 5797 5798 5799 5799 5800 5801 5801 5802 5802 5802 5802 5802 5801 5801 5801 5801 5801 5801 5800 5800 5799 5798 5797 5795 5794 5793 5791 5790 5788 5787 5785 5783 5782 5780 5778 5777 5775 5773 5771 5768 5766 5764 5762 5759 5757 5755 5752 5749 5746 5743 5741 5738 5735 5732 5729 5726 5724 5721 5718 5716
5766 5768 5770 5772 5774 5776 5777 5778 5780 5781 5782 5783 5784 5785 5786 5786 5787 5787 5788 5789 5789 5790 5791 5792 5794 5795 5796 5797 5797 5798 5799 5799 5799 5800 5800 5799 5799 5799 5799 5799 5799 5799 5798 5798 5797 5796 5794 5793 5792 5790 5789 5788 5786 5785 5783 5781 5780 5778 5776 5775 5773 5771 5769 5767 5764 5762 5760 5757 5755 5752 5750 5747 5744 5741 5737 5735 5732 5729 5726 5723 5720 5717 5714 5711 5708
5764 5766 5768 5770 5772 5774 5775 5777 5778 5779 5780 5781 5782 5783 5784 5785 5785 5786 5786 5787 5788 5789 5790 5791 5792 5793 5794 5795 5795 5796 5796 5797 5797 5797 5797 5797 5797 5797 5797 5796 5796 5796 5795 5794 5793 5792 5791 5790 5788 5787 5786 5784 5783 5781 5779 5777 5776 5774 5773 5771 5769 5767 5764 5762 5760 5758 5755 5752 5750 5747 5745 5742 5739 5735 5732 5729 5726 5723 5720 5717 5714 5711 5708 5705 5702
5761 5763 5765 5767 5769 5771 5773 5775 5776 5777 5778 5779 5780 5781 5782 5783 5783 5784 5785 5785 5786 5787 5788 5789 5790 5791 5792 5792 5793 5794 5794 5794 5795 5795 5795 5795 5795 5794 5794 5794 5793 5793 5792 5791 5790 5789 5788 5786 5785 5784 5782 5781 5779 5778 5776 5774 5772 5771 5769 5767 5765 5762 5760 5758 5755 5753 5750 5747 5745 5742 5739 5736 5733 5730 5726 5723 5720 5717 5714 5711 5708 5705 5701 5698 5695
5758 5761 5763 5765 5766 5768 5770 5772 5773 5774 5775 5776 5777 5778 5779 5780 5782 5782 5783 5784 5785 5786 5786 5787 5788 5789 5790 5790 5791 5791 5792 5792 5792 5792 5793 5792 5792 5792 5791 5791 5790 5790 5789 5788 5787 5786 5784 5783 5782 5781 5779 5778 5776 5774 5772 5770 5768 5767 5764 5762 5760 5758 5755 5753 5750 5747 5745 5742 5739 5736 5733 5730 5727 5724 5720 5717 5713 5710 5707 5704 5701 5698 5695 5691 5688
5755 5757 5760 5762 5763 5765 5767 5769 5770 5771 5773 5774 5775 5775 5776 5778 5779 5780 5781 5782 5783 5784 5784 5785 5786 5787 5788 5788 5789 5789 5789 5790 5790 5790 5790 5790 5789 5789 5789 5788 5788 5787 5786 5785 5784 5783 5781 5780 5779 5777 5776 5774 5772 5770 5768 5766 5764 5762 5760 5757 5755 5753 5751 5748 5745 5742 5739 5736 5733 5730 5727 5724 5721 5718 5714 5711 5707 5703 5700 5697 5694 5690 5687 5683 5680
5752 5754 5756 5758 5760 5762 5764 5766 5767 5768 5770 5771 5771 5772 5773 5775 5777 5778 5779 5780 5781 5782 5782 5783 5784 5785 5786 5786 5786 5786 5787 5787 5787 5787 5787 5787 5787 5786 5786 5785 5785 5784 5783 5782 5781 5779 5778 5777 5775 5774 5772 5771 5769 5766 5764 5762 5760 5757 5755 5753 5751 5748 5746 5743 5740 5737 5734 5730 5727 5724 5721 5718 5715 5711 5708 5705 5701 5698 5694 5690 5686 5683 5679 5675 5672
5750 5751 5753 5755 5757 5759 5760 5762 5763 5765 5767 5767 5768 5769 5771 5773 5775 5776 5777 5778 5778 5779 5780 5781 5782 5783 5784 5784 5784 5784 5784 5784 5784 5784 5784 5784 5784 5784 5783 5783 5782 5781 5780 5779 5778 5776 5775 5773 5772 5770 5769 5767 5765 5763 5761 5758 5755 5753 5751 5748 5746 5744 5741 5738 5735 5732 5729 5725 5722 5719 5715 5712 5708 5705 5701 5698 5694 5690 5687 5683 5679 5675 5671 5667 5664
5747 5749 5750 5752 5754 5755 5756 5758 5760 5762 5763 5764 5766 5768 5770 5771 5772 5773 5775 5775 5776 5777 5778 5779 5780 5781 5781 5781 5781 5782 5782 5782 5782 5782 5782 5782 5782 5781 5781 5780 5779 5778 5777 5776 5774 5773 5771 5770 5768 5767 5765 5763 5761 5759 5757 5754 5751 5749 5747 5744 5742 5740 5737 5734 5731 5728 5725 5721 5717 5714 5710 5706 5703 5699 5695 5691 5687 5683 5679 5675 5671 5667 5663 5659 5655
5744 5745 5747 5748 5750 5751 5753 5755 5757 5760 5760 5761 5764 5767 5768 5768 5769 5771 5772 5773 5774 5775 5776 5777 5777 5778 5778 5779 5779 5779 5779 5779 5779 5780 5780 5780 5779 5779 5778 5777 5776 5774 5773 5772 5770 5769 5768 5766 5765 5763 5761 5759 5757 5755 5753 5751 5748 5745 5743 5741 5738 5736 5733 5730 5727 5723 5720 5717 5713 5710 5706 5702 5698 5694 5689 5685 5681 5677 5672 5668 5664 5660 5656 5651 5647
5740 5742 5743 5744 5746 5749 5751 5753 5756 5757 5757 5758 5761 5763 5764 5765 5767 5768 5769 5770 5771 5772 5773 5774 5775 5775 5776 5776 5777 5777 5777 5777 5777 5777 5777 5777 5776 5775 5775 5774 5772 5771 5769 5768 5767 5765 5764 5762 5761 5759 5757 5755 5754 5751 5749 5747 5745 5742 5740 5737 5735 5732 5729 5726 5722 5719 5716 5713 5709 5706 5702 5698 5693 5689 5684 5680 5676 5672 5667 5663 5659 5655 5650 5646 5641
5737 5739 5740 5742 5744 5746 5748 5751 5753 5753 5753 5755 5757 5758 5760 5762 5764 5765 5766 5766 5768 5769 5770 5771 5771 5772 5773 5773 5774 5774 5774 5774 5774 5774 5774 5773 5773 5772 5771 5770 5769 5767 5766 5764 5763 5761 5760 5758 5757 5755 5753 5752 5750 5748 5746 5743 5741 5739 5736 5734 5731 5728 5725 5722 5718 5715 5712 5709 5705 5701 5697 5693 5689 5685 5680 5676 5672 5667 5663 5659 5655 5650 5646 5641 5636
5734 5736 5738 5739 5741 5743 5746 5748 5749 5750 5751 5752 5753 5755 5758 5759 5761 5762 5762 5763 5765 5766 5767 5768 5768 5769 5770 5770 5771 5771 5771 5771 5771 5771 5771 5770 5769 5768 5767 5766 5765 5763 5762 5760 5758 5757 5756 5754 5753 5751 5750 5748 5746 5744 5742 5740 5738 5736 5733 5730 5727 5724 5721 5718 5715 5712 5708 5705 5701 5697 5693 5689 5685 5681 5677 5673 5668 5664 5660 5655 5651 5646 5641 5636 5631
5732 5733 5735 5737 5739 5741 5743 5745 5746 5747 5748 5749 5751 5753 5755 5755 5756 5757 5758 5759 5761 5762 5764 5764 5765 5766 5766 5767 5768 5768 5768 5768 5768 5768 5767 5767 5766 5765 5764 5762 5761 5759 5758 5756 5754 5753 5752 5750 5749 5748 5746 5744 5743 5741 5739 5737 5735 5732 5730 5727 5724 5721 5718 5715 5711 5708 5704 5701 5697 5693 5689 5685 5681 5677 5673 5669 5665 5661 5656 5651 5647 5642 5637 5632 5626
5729 5730 5732 5734 5735 5737 5739 5741 5742 5743 5745 5746 5748 5750 5751 5752 5753 5754 5754 5756 5758 5759 5760 5761 5762 5763 5763 5764 5765 5765 5765 5765 5765 5765 5764 5763 5762 5761 5760 5759 5757 5756 5754 5752 5751 5749 5748 5747 5746 5744 5743 5741 5739 5738 5736 5734 5731 5729 5726 5723 5721 5717 5714 5711 5708 5704 5700 5696 5692 5688 5685 5681 5678 5674 5670 5666 5662 5658 5653 5648 5643 5638 5633 5628 5623
5726 5728 5729 5730 5732 5733 5735 5737 5738 5740 5742 5744 5745 5747 5748 5749 5750 5751 5752 5753 5753 5754 5755 5757 5758 5759 5760 5761 5762 5762 5762 5762 5762 5762 5761 5760 5759 5758 5756 5755 5754 5752 5751 5749 5747 5746 5745 5744 5742 5741 5740 5738 5737 5735 5733 5730 5728 5725 5723 5720 5717 5714 5711 5707 5704 5700 5696 5692 5688 5685 5681 5678 5675 5671 5667 5663 5659 5655 5650 5645 5640 5636 5631 5626 5620
5723 5725 5726 5727 5729 5731 5732 5734 5735 5737 5739 5741 5743 5744 5745 5745 5747 5748 5749 5749 5748 5748 5750 5752 5754 5756 5757 5758 5759 5759 5759 5759 5759 5758 5757 5757 5756 5754 5753 5752 5751 5749 5747 5746 5744 5743 5742 5741 5740 5738 5737 5735 5733 5731 5729 5727 5724 5722 5719 5716 5714 5711 5707 5704 5700 5696 5692 5688 5685 5682 5678 5675 5672 5668 5664 5660 5656 5652 5648 5643 5639 5634 5629 5624 5619
5720 5722 5723 5725 5726 5728 5729 5731 5732 5734 5736 5738 5740 5741 5742 5743 5744 5745 5746 5746 5743 5742 5746 5750 5751 5753 5755 5756 5756 5756 5756 5756 5756 5755 5754 5753 5752 5751 5750 5749 5747 5746 5744 5743 5741 5740 5739 5738 5737 5736 5734 5732 5730 5728 5726 5724 5721 5718 5716 5713 5710 5707 5703 5699 5696 5692 5688 5685 5682 5679 5676 5672 5669 5665 5661 5657 5653 5650 5646 5641 5637 5632 5627 5622 5616
5717 5719 5720 5722 5723 5725 5727 5728 5730 5731 5733 5735 5737 5738 5739 5740 5741 5742 5743 5743 5741 5742 5746 5748 5750 5751 5752 5753 5753 5753 5753 5753 5752 5751 5750 5750 5749 5748 5747 5745 5744 5742 5741 5740 5738 5737 5736 5735 5734 5733 5731 5729 5727 5725 5723 5720 5718 5715 5713 5710 5707 5703 5699 5695 5692 5689 5686 5683 5680 5677 5673 5670 5666 5662 5659 5655 5651 5648 5644 5639 5635 5630 5625 5620 5614
5715 5716 5718 5719 5721 5722 5724 5725 5727 5728 5731 5732 5733 5734 5736 5737 5738 5739 5740 5740 5741 5743 5745 5747 5747 5748 5749 5750 5750 5750 5750 5749 5748 5747 5747 5746 5745 5744 5743 5742 5740 5739 5738 5737 5735 5735 5734 5733 5731 5730 5728 5726 5724 5722 5719 5717 5715 5712 5710 5706 5703 5699 5696 5692 5689 5686 5683 5680 5677 5674 5671 5667 5664 5660 5657 5653 5650 5646 5642 5637 5633 5628 5623 5618 5613
5711 5713 5715 5716 5718 5719 5720 5722 5724 5726 5727 5729 5730 5731 5733 5734 5735 5736 5737 5738 5740 5741 5743 5744 5745 5745 5745 5746 5746 5746 5746 5745 5744 5744 5743 5742 5741 5740 5739 5738 5737 5736 5734 5733 5733 5732 5731 5730 5728 5726 5725 5723 5721 5719 5716 5714 5712 5709 5706 5703 5699 5696 5693 5690 5687 5684 5681 5678 5675 5672 5669 5666 5662 5659 5655 5652 5648 5644 5640 5636 5631 5626 5622 5617 5613
5708 5710 5711 5713 5714 5716 5718 5720 5721 5723 5724 5726 5727 5728 5730 5731 5732 5733 5734 5736 5737 5738 5739 5740 5741 5742 5742 5742 5743 5742 5742 5741 5741 5740 5739 5739 5738 5737 5736 5734 5733 5732 5732 5731 5730 5729 5728 5726 5725 5723 5721 5720 5718 5716 5713 5711 5708 5705 5702 5699 5696 5693 5690 5688 5685 5682 5679 5676 5673 5670 5667 5664 5661 5657 5654 5650 5647 5643 5639 5635 5630 5626 5622 5617 5613
5704 5706 5708 5710 5711 5713 5715 5717 5719 5720 5721 5723 5724 5726 5727 5728 5730 5731 5732 5733 5734 5735 5736 5737 5738 5738 5739 5739 5739 5739 5738 5738 5737 5737 5736 5735 5734 5733 5732 5731 5730 5730 5729 5728 5727 5726 5725 5723 5722 5720 5718 5716 5714 5712 5710 5708 5705 5702 5699 5696 5693 5691 5688 5686 5683 5680 5677 5674 5671 5668 5665 5662 5659 5656 5652 5649 5645 5641 5638 5634 5630 5626 5622 5617 5613
5701 5703 5705 5706 5708 5710 5712 5714 5716 5717 5719 5720 5721 5723 5725 5726 5727 5729 5730 5731 5731 5732 5733 5734 5735 5735 5735 5735 5735 5735 5734 5734 5733 5733 5732 5731 5731 5730 5729 5728 5727 5727 5726 5725 5724 5723 5722 5720 5718 5717 5715 5713 5711 5709 5707 5704 5702 5699 5696 5693 5691 5689 5687 5684 5681 5679 5676 5673 5670 5667 5664 5661 5657 5654 5651 5647 5644 5640 5637 5633 5630 5626 5622 5618 5613
5698 5700 5701 5703 5705 5707 5709 5711 5713 5714 5716 5717 5719 5720 5722 5723 5725 5726 5727 5728 5728 5729 5730 5731 5732 5732 5732 5732 5731 5731 5731 5731 5730 5729 5729 5728 5727 5727 5726 5725 5725 5724 5723 5723 5721 5720 5719 5717 5715 5714 5712 5710 5708 5706 5704 5701 5698 5696 5693 5691 5689 5687 5685 5682 5680 5677 5674 5671 5668 5665 5662 5659 5657 5653 5650 5647 5643 5640 5636 5633 5629 5626 5622 5618 5614
5695 5696 5698 5700 5702 5704 5706 5709 5710 5711 5713 5715 5716 5717 5719 5721 5722 5723 5724 5725 5726 5727 5727 5728 5728 5728 5728 5728 5728 5727 5727 5727 5726 5726 5725 5725 5724 5724 5723 5723 5722 5721 5721 5720 5718 5717 5716 5714 5712 5711 5709 5707 5705 5703 5701 5698 5695 5693 5691 5689 5687 5685 5683 5680 5678 5675 5673 5670 5667 5664 5661 5658 5655 5652 5649 5646 5642 5639 5636 5632 5629 5625 5621 5617 5613
5691 5693 5695 5697 5699 5701 5704 5705 5707 5708 5710 5711 5713 5714 5716 5718 5719 5720 5721 5722 5723 5723 5724 5724 5725 5725 5724 5724 5724 5724 5724 5723 5723 5722 5722 5722 5721 5721 5720 5720 5719 5718 5718 5717 5715 5714 5713 5711 5709 5708 5706 5704 5702 5700 5697 5695 5692 5690 5689 5687 5685 5683 5681 5679 5676 5674 5671 5669 5666 5663 5660 5657 5654 5651 5648 5645 5642 5639 5636 5632 5628 5625 5621 5617 5613
5687 5689 5692 5694 5696 5698 5700 5702 5703 5705 5707 5708 5710 5712 5713 5715 5716 5717 5718 5719 5720 5720 5721 5721 5721 5721 5721 5721 5721 5720 5720 5719 5719 5719 5719 5719 5718 5718 5717 5717 5716 5716 5715 5714 5712 5711 5709 5708 5706 5705 5703 5701 5699 5697 5694 5692 5690 5689 5687 5685 5683 5681 5679 5677 5675 5673 5670 5668 5665 5662 5660 5657 5654 5651 5648 5645 5642 5639 5635 5632 5629 5625 5621 5618 5614
5684 5686 5689 5691 5693 5695 5696 5698 5700 5702 5704 5706 5707 5708 5710 5712 5713 5714 5715 5716 5716 5717 5717 5717 5717 5717 5717 5717 5717 5716 5716 5716 5716 5716 5716 5715 5715 5715 5714 5714 5713 5713 5712 5710 5709 5708 5706 5705 5703 5702 5700 5698 5696 5694 5692 5690 5688 5687 5685 5683 5682 5680 5678 5676 5674 5672 5670 5667 5664 5662 5659 5657 5654 5651 5648 5645 5642 5639 5635 5632 5629 5625 5622 5618 5614
5680 5683 5685 5687 5689 5691 5693 5695 5697 5699 5701 5702 5704 5705 5707 5708 5710 5711 5712 5712 5713 5713 5713 5713 5713 5714 5714 5714 5713 5713 5713 5713 5713 5713 5713 5713 5712 5712 5711 5711 5710 5709 5708 5707 5706 5705 5703 5702 5700 5699 5697 5695 5693 5691 5689 5688 5686 5685 5683 5682 5680 5678 5677 5675 5673 5671 5669 5666 5664 5661 5659 5656 5653 5650 5648 5644 5641 5638 5635 5631 5628 5625 5621 5618 5615